Location: *
(1.3500°S, 147.5000°W)
Time: 17:47:09
(UTC+00:00)

SL-14 R/B - Pass Details

Date: 07 April 2020
Orbit: 517 x 556 km, 82.4° (Epoch: 27 May)

Event Time Altitude Azimuth Distance (km) Brightness Sun altitude
Rises 04:36:54 0° 5° (N) 2,676 6.9 -11.3°
Reaches altitude 10° 04:39:06 10° 10° (N) 1,782 5.9 -11.8°
Maximum altitude 04:42:53 50° 86° (E) 679 3.4 -12.8°
Drops below altitude 10° 04:46:40 10° 162° (SSE) 1,770 5.7 -13.7°
Sets 04:48:50 0° 167° (SSE) 2,655 6.6 -14.2°
